Regional Weather Roundup
Issued by NWS

Home | Current Version | Previous Version | Text Only | Print | Product List | Glossary On
Versions: 1 2 3 4 5 6 7 8 9 10 11 12 13 14 15 16 17 18 19 20 21 22 23 24 25 26 27
000
ASUS42 KFFC 011503
RWRGA
WEATHER ROUNDUP FOR GEORGIA
NATIONAL WEATHER SERVICE PEACHTREE CITY GA
1100 AM EDT SUN MAY 01 2016

NOTE: "FAIR" INDICATES FEW OR NO CLOUDS BELOW 12,000 FEET WITH NO
SIGNIFICANT WEATHER AND/OR OBSTRUCTIONS TO VISIBILITY.

* = USE WITH CAUTION. THE STATIONS MARKED WITH AN ASTERISK MAY NOT
REPORT WEATHER SUCH AS PRECIPITATION, FOG, OR THUNDER AND ARE NOT
QUALITY CONTROLLED BY NWS.

THE REMARK "TC" DENOTES TEMPERATURE READING IN DEGREES CELSIUS.

GAZ001>058-011600-
NORTH GEORGIA

CITY           SKY/WX    TMP DP  RH WIND       PRES   REMARKS
ATLANTA        MOSUNNY   76  66  71 CALM      30.04S
ATHENS         PTSUNNY   75  70  84 VRB3      30.05S
CHAMBLEE       PTSUNNY   76  68  76 W8        30.05R
PEACHTREE CITY MOSUNNY   77  68  73 W7        30.05R
ROME           PTSUNNY   76  66  71 VRB3      30.01S
WEST ATLANTA   MOSUNNY   75  67  76 VRB7      30.04R
GAINESVILLE    PTSUNNY   72  66  81 SW7       30.08R
CARTERSVILLE   CLOUDY    75  67  76 CALM      30.04S


CITY           SKY/WX    TMP DP  RH WIND       PRES   REMARKS
DALTON*        CLOUDY    72  70  94 CALM      30.03S
LAWRENCEVILLE* PTSUNNY   73  68  83 W7        30.06S
MARIETTA       PTSUNNY   73  69  85 VRB2      30.05R
KENNESAW*      CLOUDY    72  64  78 CALM      30.02S
CANTON*        CLOUDY    70  63  78 CALM      30.06S
BLAIRSVILLE*     N/A    N/A N/A N/A MISG      30.06S
$$

GAZ059>098-102>109-011600-
CENTRAL GEORGIA

CITY           SKY/WX    TMP DP  RH WIND       PRES   REMARKS
AUGUSTA-BUSH   PTSUNNY   79  69  71 SW8       30.05R
AUGUSTA-DANIEL PTSUNNY   81  67  62 S8        30.07R
COLUMBUS       MOSUNNY   78  67  68 S6        30.03S
MACON          MOSUNNY   79  66  64 SW7       30.05S
ROBINS AFB     SUNNY     80  66  61 S6        30.05S


CITY           SKY/WX    TMP DP  RH WIND       PRES   REMARKS
LAGRANGE*      MOSUNNY   82  73  72 S8        30.04R
SYLVANIA*      PTSUNNY   80  71  72 SW10      30.08R
MILLEDGEVILLE* PTSUNNY   77  70  78 CALM      30.06S
$$

GAZ099>101-110>166-011600-
SOUTH GEORGIA

CITY           SKY/WX    TMP DP  RH WIND       PRES   REMARKS
SAVANNAH       PTSUNNY   81  66  60 S10       30.08S
VALDOSTA       SUNNY     80  68  66 S10       30.07R
ALMA           PTSUNNY   80  68  66 S9        30.08R
ST SIMONS      MOSUNNY   79  72  79 S9        30.08R
FT STEWART     PTSUNNY   78  69  72 VRB1      30.06R
ALBANY         MOSUNNY   83  66  56 S8        30.06S
HUNTER AFB     PTSUNNY   79  73  80 S8        30.06S
MOODY AFB      MOSUNNY   81  67  63 S10       30.06R
BRUNSWICK      PTSUNNY   84  72  65 S8        30.08S


CITY           SKY/WX    TMP DP  RH WIND       PRES   REMARKS
BAINBRIDGE*    SUNNY     81  68  65 S6        30.04S
MOULTRIE*      MOSUNNY   79  70  73 S6        30.06S
VIDALIA*       CLOUDY    81  70  69 S9        30.07S
WAYCROSS*      MOSUNNY   81  69  67 SE8       30.07R
DOUGLAS*       CLOUDY    79  68  69 S6        30.09R
$$




USA.gov is the U.S. government's official web portal to all federal, state and local government web resources and services.